Location: Recife
(8.0585°S, 34.8848°W)
Time: 13:57:55
(UTC-03:00)

Vanguard 2 - Pass Details

Date: 20 April 2026
Orbit: 553 x 2895 km, 32.9° (Epoch: 13 May)

Event Time Altitude Azimuth Distance (km) Brightness Sun altitude
Exits shadow 00:49:09 19° 134° (SE) 4,550 11.4 -67.4°
Drops below altitude 10° 00:53:20 10° 119° (ESE) 5,040 11.8 -66.4°
Sets 00:57:43 0° 108° (ESE) 5,733 12.3 -65.3°
